Regional Weather Roundup
Issued by NWS Charleston, SC

Current Version | Previous Version | Graphics & Text | Print | Product List | Glossary On
Versions: 1 2 3 4 5 6 7 8 9 10 11 12 13 14 15 16 17 18 19 20 21 22 23 24 25 26 27 28 29 30 31 32 33 34 35 36 37 38 39 40 41 42 43 44 45 46 47 48 49 50
000 ASUS42 KCHS 240712 RWRCHS REGIONAL WEATHER ROUNDUP NATIONAL WEATHER SERVICE CHARLESTON SC 300 AM EDT SUN MAY 24 2015 NOTE: "FAIR" INDICATES FEW OR NO CLOUDS BELOW 12,000 FEET WITH NO SIGNIFICANT WEATHER AND/OR OBSTRUCTIONS TO VISIBILITY. NOT ALL STATIONS ARE QUALITY CONTROLLED BY THE NATIONAL WEATHER SERVICE. USE DATA WITH CAUTION...ESPECIALLY DEWPOINT OBSERVATIONS. SCZ027-030-031-034>040-042>050-240800- ...SOUTHEAST SOUTH CAROLINA... CITY SKY/WX TMP DP RH WIND PRES REMARKS N CHARLESTON CLEAR 69 58 67 E5 30.31F WATERFRONT PAR N/A 74 62 66 SE15 30.29F MOUNT PLEASANT FAIR 72 57 60 E6 30.32S JOHNS ISLAND SUNNY 73 59 60 E9G16 30.32F PINOPOLIS N/A 68 61 77 VRB2 30.26F MONCKS CORNER FAIR 63 59 88 CALM 30.33S SUMMERVILLE FAIR 61 61 100 CALM 30.33S BEAUFORT MCAS CLEAR 73 61 65 SE7 30.30F BEAUFORT ARPT FAIR 72 61 68 E8 30.30S HILTON HEAD IS PTCLDY 73 61 64 NE7 30.31F WALTERBORO SUNNY 61 59 94 NE5 30.32F ALLENDALE FAIR 64 61 88 CALM 30.31S ...SOUTHERN MIDLANDS AND PEE DEE... CITY SKY/WX TMP DP RH WIND PRES REMARKS GEORGETOWN NOT AVBL KINGSTREE NOT AVBL ORANGEBURG CLEAR 61 57 87 NE3 30.33F BARNWELL FAIR 64 61 88 NE3 30.33S AIKEN FAIR 59 54 82 E3 30.37S MANNING FAIR 55 50 82 CALM 30.34S COLUMBIA CLEAR 60 52 74 CALM 30.34S SUMTER CLEAR 61 56 85 NE3 30.33F FLORENCE CLEAR 60 57 89 CALM 30.35F MYRTLE BEACH CLEAR 72 55 56 E9 30.36F N MYRTLE BEACH PTCLDY 73 56 54 SE7 30.34F $$ GAZ063-065-086>088-099>101-113>116-118-119-134>141-150-240800- ...SOUTHEAST GEORGIA... CITY SKY/WX TMP DP RH WIND PRES REMARKS SAVANNAH ARPT PTCLDY 71 61 70 E6 30.30S HUNTER AAF NOT AVBL FORT STEWART NOT AVBL STATESBORO CLOUDY 67 64 89 CALM 30.30S SYLVANIA MOSUNNY 65 63 91 CALM 30.31S CLAXTON FAIR 64 63 94 CALM 30.29F ...CSRA...CENTRAL AND FAR SOUTHEAST GEORGIA... CITY SKY/WX TMP DP RH WIND PRES REMARKS THOMSON CLEAR 65 61 87 E3 30.36F AUGUSTA-BUSH CLEAR 59 56 89 CALM 30.32S AUGUSTA-DANIEL CLEAR 67 58 72 E5 30.33S SWAINSBORO FAIR 68 64 88 E5 30.30S VIDALIA PTCLDY 68 63 83 E6 30.29S EASTMAN FAIR 67 67 100 CALM 30.30F HAZLEHURST FAIR 69 64 84 E6 30.27S ALMA CLOUDY 67 63 87 E3 30.27S WAYCROSS CLEAR 68 66 94 CALM 30.27S JESUP FAIR 72 68 88 CALM 30.27F BAXLEY MOCLDY 68 64 88 E3 30.27S BRUNSWICK CLOUDY 75 63 64 E12 30.28S SAINT SIMONS NOT AVBL $$ SCZ027-028-034-036>038-045-046-048>050-GAZ119-141-240800- ...LAKE AND SUPPLEMENTAL COASTAL OBSERVATIONS... STATION/POSITION TIME TEMP WIND PRES WAVE SWELL AIR SEA DIR/SP/G HT/PER HT/PER/DIR (UTC) (F) (DEG/KT/KT) (MB) (FT/S) (FT/S/D) UPR LAKE MARION NOT AVBL WINYAH BAY 0545 74 110/ 11 1026.0 LAKE MURRAY 0600 68 110/ 4/ 6 1027.1F ACE BASIN NERRS NOT AVBL FORT PULASKI 0600 75 78 90/ 17/ 19 N/A SAPELO ISLAND 0600 75 100/ 9 1025.0F $$ ANZ835-935-AMZ111-154-330-350-352-354-370-450-454-472-240800- ...C-MAN AND BUOY OBSERVATIONS... STATION/POSITION TIME TEMP WIND PRES WAVE SWELL AIR SEA DIR/SP/G HT/PER HT/PER/DIR (UTC) (F) (DEG/KT/KT) (MB) (FT/S) (FT/S/D) BUOY 41004 0650 74 75 100/ 16/ 19 1025.8F 5/ 6 2/10 BUOY 41008 0650 75 75 90/ 14/ 17 1025.0F 5/ 6 2/110/ 8 FOLLY BEACH CMAN 0700 74 110/ 13/ 17 1026.5F CAPERS NEARSHORE 0608 74 120/ 14/ 19 1026.9F FRIPP NEARSHORE 0600 75 130/ 16/ 17 1025.3F STATION/POSITION TIME TEMP WIND PRES WAVE SWELL AIR SEA DIR/SP/G HT/PER HT/PER/DIR (UTC) (F) (DEG/KT/KT) (MB) (FT/S) (FT/S/D) 5E ST. MARYS GA 0621 77 N/A 5/ 6 FRYING PAN BUOY 0650 75 73 110/ 12/ 16 1027.9F 4/ 6 2/100/ 9 BUOY 41025 0650 72 78 100/ 4/ 8 1028.5S 3/ 6 3/ 50/ 6 CAPE LOOKOUT NC 0700 72 110/ 8/ 8 1028.2R BUOY 41002 0650 72 74 80/ 19/ 25 1026.1F 7/ 7 BUOY 41010 0620 78 80 70/ 16/ 17 1022.6F ST AUGUSTINE FL 0700 76 76 90/ 16/ 19 1024.5F $$

USA.gov is the U.S. government's official web portal to all federal, state and local government web resources and services.